When you browse on this site, cookies collect data to enhance your experience and personalize the content and advertising you see.
Visit our Privacy Policy to learn more. By continuing to use the site, you agree to this use of cookies and data.
  • In Hungary
  • List of Countries
  • For 7 days
  • Water Temperature
  • Satellite Maps
  • Weather Map
  • News
  • Weather Widgets
  • user-avatar
    Login

    Hourly Weather Miechów

    Today, 18 November, Sunday

    Time Temperature Precipitation Wind Pressure Humidity
    00:00 -3°C° 0 mm 2 mps 746 mmHg 57%
    01:00 -3°C° 0 mm 2 mps 746 mmHg 59%
    02:00 -3°C° 0 mm 2 mps 745 mmHg 59%
    03:00 -3°C° 0 mm 2 mps 745 mmHg 59%
    04:00 -1°C° 0 mm 1 mps 744 mmHg 60%
    05:00 -2°C° 0 mm 1 mps 744 mmHg 60%
    06:00 -2°C° 0 mm 1 mps 743 mmHg 60%
    07:00 -2°C° 0 mm 1 mps 743 mmHg 58%
    08:00 -1°C° 0 mm 1 mps 743 mmHg 53%
    09:00 +1°C° 0 mm 1 mps 743 mmHg 49%
    10:00 +2°C° 0 mm 1 mps 742 mmHg 44%
    11:00 +2°C° 0 mm 1 mps 742 mmHg 42%
    12:00 +2°C° 0 mm 2 mps 741 mmHg 39%
    13:00 +3°C° 0 mm 2 mps 740 mmHg 36%
    14:00 +3°C° 0 mm 1 mps 740 mmHg 41%
    15:00 +2°C° 0 mm 1 mps 739 mmHg 45%
    16:00 +1°C° 0 mm 1 mps 739 mmHg 49%
    17:00 +1°C° 0.1 mm 1 mps 739 mmHg 56%
    18:00 0°C° 0.1 mm 1 mps 738 mmHg 63%
    19:00 0°C° 0.1 mm 1 mps 738 mmHg 70%
    20:00 0°C° 0.1 mm 1 mps 738 mmHg 74%
    21:00 0°C° 0.1 mm 1 mps 738 mmHg 78%
    22:00 0°C° 0.1 mm 1 mps 737 mmHg 82%
    23:00 -2°C° 0.1 mm 2 mps 737 mmHg 84%

    Tomorrow, 19 November, Monday

    Time Temperature Precipitation Wind Pressure Humidity
    00:00 -2°C° 0.1 mm 2 mps 737 mmHg 87%
    01:00 -2°C° 0.1 mm 2 mps 737 mmHg 89%
    02:00 -2°C° 0.1 mm 2 mps 737 mmHg 90%
    03:00 -2°C° 0.1 mm 3 mps 736 mmHg 90%
    04:00 -2°C° 0.1 mm 3 mps 736 mmHg 91%
    05:00 -2°C° 0 mm 3 mps 736 mmHg 91%
    06:00 -2°C° 0 mm 3 mps 736 mmHg 92%
    07:00 -2°C° 0 mm 3 mps 736 mmHg 92%
    08:00 -3°C° 0 mm 4 mps 736 mmHg 87%
    09:00 -2°C° 0 mm 4 mps 737 mmHg 82%
    10:00 -2°C° 0 mm 4 mps 737 mmHg 76%
    11:00 -1°C° 0 mm 5 mps 737 mmHg 72%
    12:00 -1°C° 0 mm 5 mps 737 mmHg 68%
    13:00 0°C° 0 mm 5 mps 736 mmHg 64%
    14:00 -1°C° 0 mm 5 mps 736 mmHg 66%
    15:00 -2°C° 0 mm 5 mps 736 mmHg 69%
    16:00 -2°C° 0 mm 4 mps 737 mmHg 71%
    17:00 -3°C° 0 mm 4 mps 737 mmHg 72%
    18:00 -4°C° 0 mm 5 mps 737 mmHg 73%
    19:00 -4°C° 0 mm 5 mps 737 mmHg 75%
    20:00 -4°C° 0 mm 5 mps 738 mmHg 75%
    21:00 -5°C° 0 mm 5 mps 738 mmHg 75%
    22:00 -5°C° 0 mm 5 mps 738 mmHg 75%
    23:00 -5°C° 0 mm 5 mps 738 mmHg 76%

    Day after tomorrow, 20 November, Tuesday

    Time Temperature Precipitation Wind Pressure Humidity
    00:00 -5°C° 0 mm 5 mps 738 mmHg 77%
    01:00 -5°C° 0 mm 5 mps 738 mmHg 78%
    02:00 -5°C° 0 mm 5 mps 737 mmHg 79%
    03:00 -5°C° 0 mm 6 mps 737 mmHg 80%
    04:00 -5°C° 0 mm 6 mps 737 mmHg 81%
    05:00 -5°C° 0 mm 6 mps 737 mmHg 81%
    06:00 -5°C° 0 mm 6 mps 737 mmHg 80%
    07:00 -5°C° 0 mm 6 mps 737 mmHg 79%
    08:00 -5°C° 0 mm 6 mps 736 mmHg 74%
    09:00 -4°C° 0 mm 7 mps 736 mmHg 69%
    10:00 -3°C° 0 mm 7 mps 736 mmHg 64%
    11:00 -2°C° 0 mm 8 mps 735 mmHg 64%
    12:00 -2°C° 0 mm 8 mps 735 mmHg 64%
    13:00 -1°C° 0 mm 8 mps 734 mmHg 63%
    14:00 -1°C° 0 mm 8 mps 734 mmHg 66%
    15:00 -1°C° 0 mm 7 mps 734 mmHg 69%
    16:00 -2°C° 0 mm 7 mps 733 mmHg 72%
    17:00 -2°C° 0.3 mm 7 mps 733 mmHg 74%
    18:00 -2°C° 0.3 mm 7 mps 733 mmHg 76%
    19:00 -2°C° 0.3 mm 7 mps 733 mmHg 78%
    20:00 -2°C° 0.5 mm 7 mps 733 mmHg 81%
    21:00 -2°C° 0.5 mm 7 mps 733 mmHg 84%
    22:00 -2°C° 0.5 mm 7 mps 733 mmHg 87%
    23:00 -2°C° 0.1 mm 6 mps 733 mmHg 88%

    21 November, Wednesday

    Time Temperature Precipitation Wind Pressure Humidity
    00:00 -2°C° 0.1 mm 6 mps 734 mmHg 89%
    01:00 -2°C° 0.1 mm 5 mps 734 mmHg 90%
    02:00 -2°C° 0 mm 5 mps 734 mmHg 90%
    03:00 -2°C° 0 mm 5 mps 734 mmHg 90%
    04:00 -1°C° 0 mm 5 mps 734 mmHg 91%
    05:00 -2°C° 0 mm 5 mps 734 mmHg 91%
    06:00 -2°C° 0 mm 5 mps 734 mmHg 91%
    07:00 -2°C° 0 mm 4 mps 735 mmHg 92%
    08:00 -1°C° 0 mm 5 mps 735 mmHg 90%
    09:00 -1°C° 0 mm 5 mps 735 mmHg 88%
    10:00 -1°C° 0 mm 5 mps 736 mmHg 87%
    11:00 0°C° 0 mm 5 mps 736 mmHg 86%
    12:00 0°C° 0 mm 5 mps 736 mmHg 85%
    13:00 0°C° 0 mm 5 mps 736 mmHg 84%
    14:00 0°C° 0 mm 5 mps 736 mmHg 85%
    15:00 -1°C° 0 mm 5 mps 736 mmHg 85%
    16:00 -1°C° 0 mm 5 mps 737 mmHg 86%
    17:00 -1°C° 0 mm 5 mps 737 mmHg 87%
    18:00 -1°C° 0 mm 5 mps 737 mmHg 87%
    19:00 -1°C° 0 mm 5 mps 737 mmHg 88%
    20:00 -1°C° 0 mm 5 mps 738 mmHg 88%
    21:00 -2°C° 0 mm 5 mps 738 mmHg 88%
    22:00 -2°C° 0 mm 5 mps 738 mmHg 88%
    23:00 -2°C° 0 mm 5 mps 738 mmHg 88%

    22 November, Thursday

    Time Temperature Precipitation Wind Pressure Humidity
    00:00 -2°C° 0 mm 5 mps 738 mmHg 88%
    01:00 -2°C° 0 mm 5 mps 738 mmHg 88%
    02:00 -2°C° 0 mm 5 mps 738 mmHg 88%
    03:00 -2°C° 0 mm 5 mps 738 mmHg 88%
    04:00 -2°C° 0 mm 5 mps 738 mmHg 88%
    05:00 -2°C° 0 mm 5 mps 738 mmHg 88%
    06:00 -2°C° 0 mm 5 mps 739 mmHg 88%
    07:00 -2°C° 0 mm 5 mps 739 mmHg 88%
    08:00 -2°C° 0 mm 5 mps 739 mmHg 87%
    09:00 -2°C° 0 mm 5 mps 739 mmHg 85%
    10:00 -1°C° 0 mm 5 mps 740 mmHg 84%
    11:00 -1°C° 0 mm 5 mps 740 mmHg 83%
    12:00 0°C° 0 mm 5 mps 740 mmHg 82%
    13:00 0°C° 0 mm 5 mps 740 mmHg 81%
    14:00 0°C° 0 mm 5 mps 740 mmHg 82%
    15:00 -1°C° 0 mm 4 mps 740 mmHg 84%
    16:00 -1°C° 0 mm 4 mps 740 mmHg 85%
    17:00 -1°C° 0 mm 4 mps 740 mmHg 86%
    18:00 -1°C° 0 mm 4 mps 741 mmHg 86%
    19:00 -2°C° 0 mm 4 mps 741 mmHg 87%
    20:00 -2°C° 0 mm 4 mps 741 mmHg 88%
    21:00 -2°C° 0 mm 4 mps 741 mmHg 89%
    22:00 -2°C° 0 mm 4 mps 741 mmHg 89%
    23:00 -3°C° 0 mm 4 mps 741 mmHg 90%

    23 November, Friday

    Time Temperature Precipitation Wind Pressure Humidity
    00:00 -2°C° 0 mm 3 mps 741 mmHg 90%
    01:00 -2°C° 0 mm 3 mps 741 mmHg 90%
    02:00 -2°C° 0 mm 3 mps 741 mmHg 90%
    03:00 -2°C° 0 mm 3 mps 742 mmHg 91%
    04:00 -2°C° 0 mm 3 mps 742 mmHg 91%
    05:00 -2°C° 0 mm 3 mps 742 mmHg 91%
    06:00 -2°C° 0 mm 3 mps 742 mmHg 92%
    07:00 -2°C° 0 mm 2 mps 742 mmHg 93%
    08:00 -1°C° 0 mm 2 mps 742 mmHg 90%
    09:00 +1°C° 0 mm 2 mps 742 mmHg 87%
    10:00 +2°C° 0 mm 2 mps 742 mmHg 84%
    11:00 +3°C° 0 mm 2 mps 742 mmHg 83%
    12:00 +3°C° 0 mm 2 mps 742 mmHg 81%
    13:00 +4°C° 0 mm 2 mps 742 mmHg 80%
    14:00 +5°C° 0 mm 1 mps 742 mmHg 83%
    15:00 +4°C° 0 mm 1 mps 741 mmHg 86%
    16:00 +4°C° 0 mm 1 mps 741 mmHg 89%
    17:00 +4°C° 0.1 mm 1 mps 741 mmHg 90%
    18:00 +4°C° 0.1 mm 1 mps 741 mmHg 91%
    19:00 +4°C° 0.1 mm 1 mps 741 mmHg 92%
    20:00 +4°C° 0.1 mm 1 mps 740 mmHg 92%
    21:00 +4°C° 0.1 mm 1 mps 740 mmHg 92%
    22:00 +4°C° 0.1 mm 1 mps 740 mmHg 93%
    23:00 +4°C° 0 mm 1 mps 740 mmHg 93%
    Show more